Cartosat-1

operational
NORAD ID: 28649 Int'l Des: 2005-017 Owner: ISRO Country: IN
LEOCIRCULARRETROGRADESSO

Über Cartosat-1

Beschreibung wird geladen...

Live-Position

3D-Globus wird geladen...

Nächste Überflüge

Höhenverlauf

Altitude vs Time

uPlot chart will show altitude changes over time

Zweizeiliger Elementsatz

1 28649U 05017A 25297.33170356 .00002001 00000-0 21214-3 0 9991
2 28649 97.5553 325.9270 0002555 104.7859 255.3642 14.90153912108689
Epoch: 24. Okt. 2025 • Age: 13 hours

Aktueller Status

Höhe 602.8 km
Geschwindigkeit 7.56 km/s
Subsatellitenpunkt -9.17°S, 18.03°W
Startdatum 5. Mai 2005
Alter 20.4 years
Typ other

Technische Details

Klassifizierung Payload
Masse 1560.00 kg
Trockenmasse 1560.00 kg
Gesamtmasse 1560.00 kg
Länge 2.80 m
Durchmesser 2.00 m
Spannweite 12.00 m
Form Box + 2 Pan
Hersteller ISRO
Bus-Typ IRS
Phasenstatus In Orbit
Besitzer/Staat ISRO/IN

Große Konstellationen

Loading constellations...